Location: Santa Cristina
(46.5667°N, 11.7167°E)
Time: 06:44:38
(UTC+00:00)

Cosmos 1934 Rocket - Pass Details

Date: 21 April 2021
Orbit: 938 x 999 km, 83.0° (Epoch: 05 May)

Event Time Altitude Azimuth Distance (km) Brightness Sun altitude
Rises 01:53:27 0° 351° (N) 3,713 7.6 -21.3°
Reaches altitude 10° 01:56:00 10° 351° (N) 2,753 6.8 -21.0°
Maximum altitude 02:02:20 90° 56° (ENE) 982 3.9 -20.2°
Enters shadow 02:07:32 15° 173° (S) 2,329 5.6 -19.6°
